Regional Weather Roundup
Issued by NWS

Home | Current Version | Previous Version | Graphics & Text | Print | Product List | Glossary On
Versions: 1 2 3 4 5 6 7 8 9 10 11 12 13 14 15 16 17 18 19 20 21 22 23 24 25 26 27 28 29 30 31 32 33 34 35 36 37 38 39 40 41 42 43 44 45 46 47 48 49 50
000
ASUS45 KCYS 281410
RWRWY

WYOMING REGIONAL WEATHER ROUNDUP
NATIONAL WEATHER SERVICE CHEYENNE WY
700 AM MST FRI NOV 28 2014

NOTE:  "FAIR" INDICATES FEW OR NO CLOUDS BELOW 12,000 FEET
WITH NO SIGNIFICANT WEATHER AND/OR OBSTRUCTIONS TO VISIBILITY.

WYZ001-281500-
YELLOWSTONE NATIONAL PARK

CITY           SKY/WX    TMP DP  RH WIND       PRES   REMARKS
LK YELLOWSTONE   N/A     38  20  48 VRB6      29.93F WCI  33
W YELLOWSTONE  NOT AVBL

$$
WYZ002>013-054>058-071-098>099-281500-
NORTHERN WYOMING

CITY           SKY/WX    TMP DP  RH WIND       PRES   REMARKS
JACKSON        CLEAR     39  25  56 CALM      29.96S
CODY           MOCLDY    54  19  26 W24G40    29.70F
GREYBULL       MOCLDY    33  27  78 CALM      29.77F
WORLAND        CLOUDY    27  23  85 CALM      29.80R
SHERIDAN       CLOUDY    56  22  26 W16G37    29.69S
BUFFALO        MOCLDY    52  22  30 N8        29.74R
GILLETTE       CLOUDY    45  27  49 SW16      29.72F
HULETT           N/A    N/A N/A N/A MISG        N/A
NEWCASTLE      FAIR      32  27  80 NE6       29.79R WCI  26

$$
WYZ014>020-022>026-101>103-281500-
CENTRAL WYOMING

CITY           SKY/WX    TMP DP  RH WIND       PRES   REMARKS
BIG PINEY      CLOUDY   N/A N/A N/A E7        30.04F
PINEDALE       CLOUDY    19  18  93 NW3       30.05S
DUBOIS         FAIR      41  18  38 W14G21    29.92F
LANDER         MOCLDY    51  11  20 NW6       29.87R
RIVERTON       CLOUDY    36  21  54 W6        29.89S WCI  31
CASPER         CLOUDY    43  21  41 SW15      29.87F
DOUGLAS        MOCLDY    50  21  32 W21G26    29.84S

$$
WYZ021-027>030-104>119-281500-
SOUTHERN WYOMING

CITY           SKY/WX    TMP DP  RH WIND       PRES   REMARKS
EVANSTON       PTCLDY    38  15  39 SW9       30.08S WCI  31
FORT BRIDGER   FAIR      40  16  38 W10       30.08S WCI  33
ROCK SPRINGS   PTCLDY    37  15  40 W7        30.06F WCI  32
DIXON          FAIR      43  16  33 SW14G23   30.13S
RAWLINS        MOCLDY    42  15  33 W20G29    30.03R
SARATOGA       FAIR      41  14  33 S10       30.08S
LARAMIE        PTCLDY    40  14  34 W13       30.02S WCI  32
CHEYENNE       MOCLDY    48  14  25 SW13      29.95S
TORRINGTON     CLEAR     52  20  28 W17       29.82F
PINE BLUFFS    FAIR      46  18  31 SW18      29.92F

$$


USA.gov is the U.S. government's official web portal to all federal, state and local government web resources and services.